This is the latest recevied weather packets stored in our database for station/object K4KMJ. If no packets are shown the sender has not sent any weather packets the latest 10 day(s).
| Time | Temp. | Humidity | Pressure | Rain* | Wind** | Luminosity | Snow |
|---|---|---|---|---|---|---|---|
| 1788457687 | 27.78° C | 95% | 1017.2 hPa | 0 mm | - | 278 W/m² | - |
| 1788457383 | 27.78° C | 96% | 1017.1 hPa | 0 mm | - | 453 W/m² | - |
| 1788457077 | 27.78° C | 96% | 1017.1 hPa | 0 mm | - | 453 W/m² | - |
| 1788456773 | 27.78° C | 96% | 1017.2 hPa | 0 mm | - | 450 W/m² | - |
| 1788456468 | 27.78° C | 97% | 1017.3 hPa | 0 mm | - | 350 W/m² | - |
| 1788456163 | 27.78° C | 98% | 1017.2 hPa | 0 mm | - | 282 W/m² | - |
| 1788455858 | 27.78° C | 98% | 1017.3 hPa | 0 mm | - | 278 W/m² | - |
| 1788455554 | 27.78° C | 98% | 1017.3 hPa | 0 mm | - | 344 W/m² | - |
| 1788455252 | 27.22° C | 98% | 1017.2 hPa | 0 mm | - | 351 W/m² | - |
| 1788454948 | 27.22° C | 99% | 1017.3 hPa | 0 mm | - | 387 W/m² | - |
| 1788454646 | 27.22° C | 99% | 1017.4 hPa | 0 mm | - | 360 W/m² | - |
| 1788454341 | 26.67° C | 99% | 1017.4 hPa | 0 mm | - | 344 W/m² | - |
| 1788454035 | 26.67° C | 99% | 1017.7 hPa | 0 mm | - | 280 W/m² | - |
| 1788453732 | 26.67° C | 99% | 1017.6 hPa | 0 mm | - | 265 W/m² | - |
| 1788453431 | 26.67° C | 99% | 1017.6 hPa | 0 mm | - | 156 W/m² | - |
| 1788453128 | 26.67° C | 99% | 1017.9 hPa | 0 mm | - | 99 W/m² | - |
| 1788452823 | 26.67° C | 99% | 1017.9 hPa | 0 mm | - | 160 W/m² | - |
| 1788452519 | 26.11° C | 99% | 1018.1 hPa | 0 mm | - | 126 W/m² | - |
| 1788452214 | 26.11° C | 99% | 1018 hPa | 0 mm | - | 111 W/m² | - |
| 1788451909 | 26.67° C | 99% | 1017.9 hPa | 0 mm | - | 172 W/m² | - |
| 1788451605 | 26.67° C | 99% | 1018.1 hPa | 0 mm | - | 200 W/m² | - |
| 1788451299 | 26.67° C | 99% | 1017.9 hPa | 0 mm | - | 238 W/m² | - |
| 1788450998 | 26.67° C | 99% | 1018 hPa | 0 mm | - | 239 W/m² | - |
| 1788450693 | 26.67° C | 99% | 1018 hPa | 0 mm | - | 254 W/m² | - |
| 1788450389 | 26.11° C | 99% | 1017.9 hPa | 0 mm | - | 262 W/m² | - |
* Rain latest hour (hover to see other rain measurements)
** Current wind speed in m/s (hover to see current wind gust speed)